Weather Roundup
Issued by NWS

Home | Current Version | Previous Version | Text Only | Print | Product List | Glossary On
Versions: 1 2 3 4 5 6 7 8 9 10 11 12 13 14 15 16 17 18 19 20 21 22 23 24 25 26 27 28 29 30 31 32 33 34 35 36 37 38 39 40 41 42 43 44 45 46 47 48 49 50
324
NZUS93 KARX 051510
HRRWXR

CURRENT HOURLY OBSERVATIONS ACROSS
MUCH OF THE UPPER MISSISSIPPI VALLEY
NATIONAL WEATHER SERVICE LA CROSSE WI
900 AM CST FRI FEB 05 2016


...SOUTHEAST MINNESOTA...


CITY           SKY/WX    TMP DP  RH WIND       PRES   REMARKS
ROCHESTER      MOSUNNY    6   3  87 SW7       30.33R WCI  -6
ROCHESTER/MAYO FAIR      10   9  92 CALM      30.34R
WINONA         CLOUDY     9   3  78 CALM      30.39S
AUSTIN         CLOUDY     7   3  85 CALM      30.34S
ALBERT LEA       N/A     10   7  85 CALM      30.33S
DODGE CENTER   CLOUDY     9   7  92 SW3       30.32R
PRESTON        MOSUNNY    8   5  87 SW5       30.34S WCI   0
OWATONNA       CLOUDY    12  10  92 SE3       30.32S
FARIBAULT        N/A      9   5  85 CALM      30.34R FOG
$$

...ELSEWHERE IN MINNESOTA...


CITY           SKY/WX    TMP DP  RH WIND       PRES   REMARKS
MINNEAPOLIS    CLOUDY     8   5  87 SE5       30.34S WCI   0
INTNL FALLS    CLOUDY    11   7  84 SE6       30.18F WCI   1
DULUTH         CLOUDY     8   3  80 SE3       30.23F
RED WING       MOSUNNY    9   5  85 CALM      30.36R
REDWOOD FALLS  CLOUDY    12   9  87 S13       30.27R WCI  -3
MANKATO        CLOUDY    10   9  92 S8        30.32S WCI  -1
WORTHINGTON    CLOUDY    18  10  73 S17       30.25S WCI   2
FAIRMONT       CLOUDY    10   7  85 S10       30.30S WCI  -3
$$

...SOUTHWEST WISCONSIN...


CITY           SKY/WX    TMP DP  RH WIND       PRES   REMARKS
LA CROSSE      CLOUDY     4   2  91 S3        30.38S
PRAIRIE DU CHI MOSUNNY   14  10  82 CALM      30.40R
BOSCOBEL       CLOUDY    14  13  95 SW3       30.40R FOG
LONE ROCK      MOSUNNY   12  10  92 CALM      30.38S FOG
PLATTEVILLE    CLOUDY    19  18  94 W5        30.36R WCI  12
FORT MC COY    MOSUNNY    4   1  88 CALM      30.37S
CAMP DOUGLAS   PTSUNNY    7   7 100 CALM      30.34S
VIROQUA        FAIR      12  10  93 SW5       30.33S WCI   4
WIS DELLS      CLOUDY    15  13  92 CALM      30.35S FOG
$$

...ELSEWHERE IN WISCONSIN...


CITY           SKY/WX    TMP DP  RH WIND       PRES   REMARKS
MILWAUKEE      PTSUNNY   25  18  74 NW9       30.35R WCI  15
MADISON        PTSUNNY   23  16  74 NW6       30.36R WCI  16
GREEN BAY      CLOUDY    15  12  88 W9        30.34R WCI   3
EAU CLAIRE     CLOUDY     7   5  91 SW3       30.34S
BLACK RVR FLS  FAIR       7   4  86 CALM      30.36S
MEDFORD        CLOUDY   N/A N/A N/A CALM      30.27S HAZE
WAUSAU         CLOUDY    14  10  84 NW6       30.29R WCI   5
WIS RAPIDS     CLOUDY    14  11  87 CALM      30.34S FOG
MARSHFIELD     CLOUDY     9   5  84 W6        30.29S FOG     WCI  -1
RICE LAKE      MOSUNNY   -1  -4  84 CALM      30.33S
$$

...NORTHEAST IOWA...


CITY           SKY/WX    TMP DP  RH WIND       PRES   REMARKS
WATERLOO       CLOUDY     6   5  95 CALM      30.40S
DUBUQUE        CLOUDY    22  16  78 W3        30.37R HAZE
DECORAH        CLOUDY     9   7  92 CALM      30.35S
MASON CITY     CLOUDY     6   4  91 S6        30.36S FOG     WCI  -4
CHARLES CITY   CLOUDY     5   3  92 CALM      30.38R
OELWEIN        MOSUNNY    7   3  85 CALM      30.38S
$$

...ELSEWHERE IN IOWA...


CITY           SKY/WX    TMP DP  RH WIND       PRES   REMARKS
DES MOINES     CLOUDY    19  14  81 S3        30.40S
IOWA CITY      SUNNY     19  15  84 CALM      30.43R
FORT DODGE     CLOUDY     7   1  78 CALM      30.36R
MARSHALLTOWN   CLOUDY    10   9  95 CALM      30.39R
CEDAR RAPIDS   SUNNY     16  14  92 NW6       30.39R WCI   7
$$

...NORTHERN ILLINOIS...


CITY           SKY/WX    TMP DP  RH WIND       PRES   REMARKS
CHICAGO-OHARE  CLOUDY    29  23  78 NW14      30.34R WCI  18
CHICAGO-MIDWAY FLURRIES  31  24  75 N12       30.34R WCI  22
MOLINE         PTSUNNY   27  17  66 NW5       30.40R WCI  22
ROCKFORD       CLOUDY    26  19  74 N9        30.39R WCI  17
PEORIA         CLOUDY    27  18  69 N6        30.41R WCI  20
$$

NOTE: "FAIR" INDICATES FEW OR NO CLOUDS BELOW 12,000 FEET WITH NO
SIGNIFICANT WEATHER AND/OR OBSTRUCTIONS TO VISIBILITY. WIND
SPEEDS ARE IN MILES-PER-HOUR.




USA.gov is the U.S. government's official web portal to all federal, state and local government web resources and services.